Portada
METAR-TAF:

METAR-TAF

Aeroports :

Marion County Regional Airport

Flippin, Arkansas, Estats Units d'Amèrica

latitud: 36-18N, longitud: 092-28W, altitud: 350 m

Observació

L'informe es va fer fa 20 minuts, a les 12:56 UTC
Vent 3 kt del Sud/Sud-Est
Temperatura 15°C
Humitat 82%
Pressió 1024 hPa
Visibilitat: 16.1 km
Cel clar

METAR: KFLP 301256Z AUTO 16003KT 10SM CLR 15/12 A3024 RMK AO2 SLP234 T01500122

Hora: 08:16 (13:16 UTC)


TAF: manca

Observacions i pronòstics meteorològics de més de 4000 aeroports (METAR i TAF).

Les estacions disponibles són els punts grocs i vermells al mapa.

Posi el ratolí al punt desitjat per veure el nom de l'estació.

Feu clic per veure les observacions i els pronòstics meteorològics.

Per canviar el mapa: feu clic els botons verds amb una creu de color negre per apropar; al botó verd amb un guió per allunyar la imatge; o en les fletxes verdes per a mapes adjacents.


METAR-TAF: